• In Romania
  • List of Countries
  • For 7 days
  • Water Temperature
  • Satellite Maps
  • Weather Map
  • Weather Widgets
  • user-avatar
    Login

    Hourly Weather Oppola

    Today, 15 August, Wednesday

    Time Temperature Precipitation Wind Pressure Humidity
    00:00 +13°C° 0 mm 1 mps 746 mmHg 81%
    01:00 +13°C° 0 mm 1 mps 746 mmHg 81%
    02:00 +13°C° 0 mm 1 mps 746 mmHg 83%
    03:00 +13°C° 0.1 mm 1 mps 746 mmHg 83%
    04:00 +13°C° 0.1 mm 1 mps 746 mmHg 84%
    05:00 +13°C° 0.1 mm 1 mps 746 mmHg 84%
    06:00 +14°C° 0.1 mm 1 mps 746 mmHg 79%
    07:00 +15°C° 0.1 mm 1 mps 746 mmHg 75%
    08:00 +16°C° 0.1 mm 1 mps 746 mmHg 70%
    09:00 +19°C° 0.1 mm 1 mps 746 mmHg 64%
    10:00 +20°C° 0.1 mm 1 mps 746 mmHg 57%
    11:00 +21°C° 0.1 mm 1 mps 746 mmHg 50%
    12:00 +22°C° 0 mm 1 mps 746 mmHg 47%
    13:00 +22°C° 0 mm 1 mps 746 mmHg 44%
    14:00 +23°C° 0 mm 1 mps 746 mmHg 41%
    15:00 +22°C° 0 mm 1 mps 746 mmHg 43%
    16:00 +20°C° 0 mm 2 mps 746 mmHg 45%
    17:00 +19°C° 0 mm 2 mps 746 mmHg 47%
    18:00 +18°C° 0 mm 2 mps 746 mmHg 54%
    19:00 +16°C° 0 mm 2 mps 746 mmHg 60%
    20:00 +14°C° 0 mm 3 mps 746 mmHg 67%
    21:00 +13°C° 0 mm 3 mps 747 mmHg 73%
    22:00 +12°C° 0 mm 3 mps 747 mmHg 79%
    23:00 +11°C° 0 mm 3 mps 747 mmHg 85%

    Tomorrow, 16 August, Thursday

    Time Temperature Precipitation Wind Pressure Humidity
    00:00 +10°C° 0 mm 2 mps 747 mmHg 88%
    01:00 +10°C° 0 mm 2 mps 748 mmHg 91%
    02:00 +9°C° 0 mm 2 mps 748 mmHg 94%
    03:00 +9°C° 0 mm 2 mps 748 mmHg 94%
    04:00 +9°C° 0 mm 2 mps 749 mmHg 93%
    05:00 +10°C° 0 mm 2 mps 749 mmHg 93%
    06:00 +12°C° 0 mm 2 mps 749 mmHg 84%
    07:00 +14°C° 0 mm 2 mps 750 mmHg 75%
    08:00 +16°C° 0 mm 2 mps 750 mmHg 66%
    09:00 +17°C° 0 mm 2 mps 750 mmHg 59%
    10:00 +19°C° 0 mm 2 mps 750 mmHg 53%
    11:00 +20°C° 0 mm 2 mps 751 mmHg 47%
    12:00 +20°C° 0 mm 2 mps 751 mmHg 46%
    13:00 +20°C° 0 mm 2 mps 751 mmHg 44%
    14:00 +21°C° 0 mm 2 mps 751 mmHg 43%
    15:00 +20°C° 0 mm 2 mps 751 mmHg 45%
    16:00 +20°C° 0 mm 2 mps 752 mmHg 47%
    17:00 +19°C° 0 mm 2 mps 752 mmHg 49%
    18:00 +18°C° 0 mm 1 mps 752 mmHg 55%
    19:00 +16°C° 0 mm 1 mps 752 mmHg 62%
    20:00 +14°C° 0 mm 1 mps 753 mmHg 69%
    21:00 +13°C° 0 mm 1 mps 753 mmHg 71%
    22:00 +13°C° 0 mm 1 mps 753 mmHg 74%
    23:00 +11°C° 0 mm 0 mps 753 mmHg 76%

    Day after tomorrow, 17 August, Friday

    Time Temperature Precipitation Wind Pressure Humidity
    00:00 +12°C° 0 mm 1 mps 754 mmHg 76%
    01:00 +12°C° 0 mm 1 mps 754 mmHg 77%
    02:00 +12°C° 0 mm 1 mps 754 mmHg 77%
    03:00 +12°C° 0 mm 1 mps 754 mmHg 77%
    04:00 +12°C° 0 mm 1 mps 754 mmHg 77%
    05:00 +13°C° 0 mm 1 mps 755 mmHg 76%
    06:00 +15°C° 0 mm 1 mps 755 mmHg 69%
    07:00 +17°C° 0 mm 2 mps 755 mmHg 62%
    08:00 +19°C° 0 mm 2 mps 755 mmHg 54%
    09:00 +20°C° 0 mm 2 mps 755 mmHg 51%
    10:00 +21°C° 0 mm 3 mps 755 mmHg 47%
    11:00 +22°C° 0 mm 3 mps 755 mmHg 43%
    12:00 +22°C° 0 mm 3 mps 755 mmHg 43%
    13:00 +24°C° 0 mm 3 mps 754 mmHg 42%
    14:00 +23°C° 0 mm 4 mps 754 mmHg 41%
    15:00 +24°C° 0 mm 3 mps 754 mmHg 43%
    16:00 +22°C° 0 mm 3 mps 754 mmHg 45%
    17:00 +22°C° 0 mm 3 mps 754 mmHg 46%
    18:00 +20°C° 0 mm 3 mps 754 mmHg 53%
    19:00 +18°C° 0 mm 3 mps 754 mmHg 59%
    20:00 +17°C° 0 mm 2 mps 754 mmHg 65%
    21:00 +16°C° 0 mm 2 mps 754 mmHg 67%
    22:00 +15°C° 0 mm 2 mps 754 mmHg 70%
    23:00 +15°C° 0 mm 2 mps 754 mmHg 72%

    18 August, Saturday

    Time Temperature Precipitation Wind Pressure Humidity
    00:00 +15°C° 0 mm 2 mps 754 mmHg 75%
    01:00 +14°C° 0 mm 2 mps 754 mmHg 77%
    02:00 +14°C° 0 mm 2 mps 754 mmHg 80%
    03:00 +13°C° 0 mm 3 mps 754 mmHg 80%
    04:00 +13°C° 0 mm 3 mps 754 mmHg 79%
    05:00 +14°C° 0 mm 3 mps 754 mmHg 79%
    06:00 +16°C° 0 mm 3 mps 754 mmHg 72%
    07:00 +18°C° 0 mm 3 mps 753 mmHg 65%
    08:00 +20°C° 0 mm 4 mps 753 mmHg 59%
    09:00 +21°C° 0 mm 4 mps 753 mmHg 54%
    10:00 +23°C° 0 mm 4 mps 753 mmHg 50%
    11:00 +25°C° 0 mm 5 mps 753 mmHg 46%
    12:00 +25°C° 0 mm 5 mps 752 mmHg 45%
    13:00 +26°C° 0 mm 5 mps 752 mmHg 43%
    14:00 +26°C° 0 mm 5 mps 752 mmHg 42%
    15:00 +26°C° 0 mm 5 mps 751 mmHg 43%
    16:00 +25°C° 0 mm 5 mps 751 mmHg 45%
    17:00 +25°C° 0 mm 4 mps 751 mmHg 46%
    18:00 +22°C° 0 mm 4 mps 751 mmHg 52%
    19:00 +21°C° 0 mm 4 mps 750 mmHg 57%
    20:00 +19°C° 0 mm 4 mps 750 mmHg 62%
    21:00 +19°C° 0 mm 4 mps 750 mmHg 64%
    22:00 +19°C° 0 mm 4 mps 750 mmHg 66%
    23:00 +19°C° 0 mm 5 mps 750 mmHg 67%

    19 August, Sunday

    Time Temperature Precipitation Wind Pressure Humidity
    00:00 +17°C° 0 mm 5 mps 750 mmHg 69%
    01:00 +17°C° 0 mm 5 mps 749 mmHg 71%
    02:00 +17°C° 0 mm 5 mps 749 mmHg 73%
    03:00 +17°C° 0 mm 5 mps 749 mmHg 74%
    04:00 +16°C° 0 mm 5 mps 748 mmHg 75%
    05:00 +16°C° 0 mm 5 mps 748 mmHg 76%
    06:00 +17°C° 0 mm 5 mps 748 mmHg 74%
    07:00 +19°C° 0 mm 5 mps 747 mmHg 71%
    08:00 +20°C° 0 mm 6 mps 747 mmHg 69%
    09:00 +21°C° 0.3 mm 6 mps 746 mmHg 67%
    10:00 +22°C° 0.3 mm 6 mps 746 mmHg 65%
    11:00 +23°C° 0.3 mm 6 mps 746 mmHg 63%
    12:00 +22°C° 0.8 mm 6 mps 745 mmHg 68%
    13:00 +22°C° 0.8 mm 6 mps 745 mmHg 73%
    14:00 +21°C° 0.8 mm 6 mps 745 mmHg 78%
    15:00 +20°C° 0.6 mm 6 mps 744 mmHg 81%
    16:00 +19°C° 0.6 mm 5 mps 744 mmHg 83%
    17:00 +17°C° 0.6 mm 5 mps 744 mmHg 86%
    18:00 +16°C° 0.1 mm 5 mps 744 mmHg 87%
    19:00 +16°C° 0.1 mm 5 mps 744 mmHg 88%
    20:00 +15°C° 0.1 mm 5 mps 744 mmHg 90%
    21:00 +14°C° 0 mm 4 mps 744 mmHg 90%
    22:00 +14°C° 0 mm 4 mps 744 mmHg 91%
    23:00 +13°C° 0 mm 4 mps 744 mmHg 92%

    20 August, Monday

    Time Temperature Precipitation Wind Pressure Humidity
    00:00 +13°C° 0.1 mm 3 mps 745 mmHg 92%
    01:00 +13°C° 0.1 mm 3 mps 745 mmHg 93%
    02:00 +12°C° 0.1 mm 3 mps 745 mmHg 94%
    03:00 +12°C° 0 mm 3 mps 745 mmHg 92%
    04:00 +12°C° 0 mm 3 mps 745 mmHg 91%
    05:00 +12°C° 0 mm 3 mps 745 mmHg 89%
    06:00 +13°C° 0 mm 4 mps 746 mmHg 80%
    07:00 +14°C° 0 mm 4 mps 746 mmHg 70%
    08:00 +16°C° 0 mm 5 mps 746 mmHg 60%
    09:00 +16°C° 0 mm 5 mps 746 mmHg 54%
    10:00 +17°C° 0 mm 5 mps 746 mmHg 49%
    11:00 +19°C° 0 mm 6 mps 746 mmHg 43%
    12:00 +19°C° 0 mm 6 mps 746 mmHg 42%
    13:00 +20°C° 0 mm 6 mps 746 mmHg 41%
    14:00 +20°C° 0 mm 5 mps 747 mmHg 40%
    15:00 +20°C° 0 mm 5 mps 747 mmHg 42%
    16:00 +20°C° 0 mm 5 mps 747 mmHg 44%
    17:00 +19°C° 0 mm 4 mps 747 mmHg 46%
    18:00 +18°C° 0 mm 4 mps 747 mmHg 53%
    19:00 +16°C° 0 mm 3 mps 747 mmHg 60%
    20:00 +13°C° 0 mm 3 mps 747 mmHg 68%
    21:00 +13°C° 0 mm 3 mps 747 mmHg 70%
    22:00 +13°C° 0 mm 3 mps 747 mmHg 73%
    23:00 +12°C° 0 mm 3 mps 747 mmHg 75%
    Show more